owner,sensor,date,latitude,longitude,vertical_datum,wind_speed,wind_to_direction,wind_speed_of_gust,qcFlag 
TCOON,ioos:station:TCOON:524:1,2009-08-01T00:00:00Z,29.8672,-93.9310,0.0,0.9,151.0,2.5,'11111222,11111222,11111222' 
TCOON,ioos:station:TCOON:524:1,2009-08-01T00:06:00Z,29.8672,-93.9310,0.0,0.0,156.0,0.2,'11111222,11111222,11111222' 
TCOON,ioos:station:TCOON:524:1,2009-08-01T00:12:00Z,29.8672,-93.9310,0.0,0.2,151.0,1.1,'11111222,11111222,11111222' 
TCOON,ioos:station:TCOON:524:1,2009-08-01T00:18:00Z,29.8672,-93.9310,0.0,1.1,162.0,1.9,'11111222,11111222,11111222' 
TCOON,ioos:station:TCOON:524:1,2009-08-01T00:24:00Z,29.8672,-93.9310,0.0,0.7,170.0,2.3,'11111222,11111222,11111222' 
TCOON,ioos:station:TCOON:524:1,2009-08-01T00:30:00Z,29.8672,-93.9310,0.0,0.2,161.0,1.2,'11111222,11111222,11111222' 
TCOON,ioos:station:TCOON:524:1,2009-08-01T00:36:00Z,29.8672,-93.9310,0.0,0.5,148.0,1.4,'11111222,11111222,11111222' 
TCOON,ioos:station:TCOON:524:1,2009-08-01T00:42:00Z,29.8672,-93.9310,0.0,0.3,136.0,1.7,'11111222,11111222,11111222' 
TCOON,ioos:station:TCOON:524:1,2009-08-01T00:48:00Z,29.8672,-93.9310,0.0,1.5,138.0,2.5,'11111222,11111222,11111222' 
TCOON,ioos:station:TCOON:524:1,2009-08-01T00:54:00Z,29.8672,-93.9310,0.0,1.1,135.0,2.1,'11111222,11111222,11111222' 
TCOON,ioos:station:TCOON:524:1,2009-08-01T01:00:00Z,29.8672,-93.9310,0.0,1.8,129.0,2.5,'11111222,11111222,11111222' 
TCOON,ioos:station:TCOON:524:1,2009-08-01T02:06:00Z,29.8672,-93.9310,0.0,0.4,128.0,1.7,'11111222,11111222,11111222' 
TCOON,ioos:station:TCOON:524:1,2009-08-01T02:12:00Z,29.8672,-93.9310,0.0,1.4,118.0,2.8,'11111222,11111222,11111222' 
TCOON,ioos:station:TCOON:524:1,2009-08-01T02:18:00Z,29.8672,-93.9310,0.0,1.0,134.0,1.9,'11111222,11111222,11111222' 
TCOON,ioos:station:TCOON:524:1,2009-08-01T02:24:00Z,29.8672,-93.9310,0.0,0.0,143.0,0.5,'11111222,11111222,11111222' 
TCOON,ioos:station:TCOON:524:1,2009-08-01T02:30:00Z,29.8672,-93.9310,0.0,0.0,148.0,0.3,'11111222,11111222,11111222' 
TCOON,ioos:station:TCOON:524:1,2009-08-01T02:36:00Z,29.8672,-93.9310,0.0,0.1,157.0,1.4,'11111222,11111222,11111222' 
TCOON,ioos:station:TCOON:524:1,2009-08-01T02:42:00Z,29.8672,-93.9310,0.0,0.1,171.0,1.5,'11111222,11111222,11111222' 
TCOON,ioos:station:TCOON:524:1,2009-08-01T02:48:00Z,29.8672,-93.9310,0.0,0.1,176.0,1.1,'11111222,11111222,11111222' 
TCOON,ioos:station:TCOON:524:1,2009-08-01T02:54:00Z,29.8672,-93.9310,0.0,0.1,175.0,1.1,'11111222,11111222,11111222' 
TCOON,ioos:station:TCOON:524:1,2009-08-01T03:00:00Z,29.8672,-93.9310,0.0,0.0,172.0,0.8,'11111222,11111222,11111222' 
TCOON,ioos:station:TCOON:524:1,2009-08-01T03:06:00Z,29.8672,-93.9310,0.0,0.0,157.0,0.8,'11111222,11111222,11111222' 
TCOON,ioos:station:TCOON:524:1,2009-08-01T03:12:00Z,29.8672,-93.9310,0.0,0.1,167.0,1.0,'11111222,11111222,11111222' 
TCOON,ioos:station:TCOON:524:1,2009-08-01T03:18:00Z,29.8672,-93.9310,0.0,0.3,169.0,1.3,'11111222,11111222,11111222' 
TCOON,ioos:station:TCOON:524:1,2009-08-01T03:24:00Z,29.8672,-93.9310,0.0,0.0,170.0,0.5,'11111222,11111222,11111222' 
TCOON,ioos:station:TCOON:524:1,2009-08-01T03:30:00Z,29.8672,-93.9310,0.0,0.0,183.0,99.0,'11111222,11111222,11144222' 
TCOON,ioos:station:TCOON:524:1,2009-08-01T03:36:00Z,29.8672,-93.9310,0.0,0.0,152.0,99.0,'11111222,11111222,11144222' 
TCOON,ioos:station:TCOON:524:1,2009-08-01T03:42:00Z,29.8672,-93.9310,0.0,0.0,160.0,99.0,'11111222,11111222,11144222' 
TCOON,ioos:station:TCOON:524:1,2009-08-01T03:48:00Z,29.8672,-93.9310,0.0,0.0,162.0,0.2,'11111222,11111222,11111222' 
TCOON,ioos:station:TCOON:524:1,2009-08-01T03:54:00Z,29.8672,-93.9310,0.0,0.2,155.0,1.1,'11111222,11111222,11111222' 
TCOON,ioos:station:TCOON:524:1,2009-08-01T04:00:00Z,29.8672,-93.9310,0.0,0.3,156.0,1.3,'11111222,11111222,11111222' 
TCOON,ioos:station:TCOON:524:1,2009-08-01T04:06:00Z,29.8672,-93.9310,0.0,0.1,171.0,0.7,'11111222,11111222,11111222' 
TCOON,ioos:station:TCOON:524:1,2009-08-01T04:12:00Z,29.8672,-93.9310,0.0,0.0,163.0,99.0,'11111222,11111222,11144222' 
TCOON,ioos:station:TCOON:524:1,2009-08-01T04:18:00Z,29.8672,-93.9310,0.0,0.1,160.0,1.2,'11111222,11111222,11111222' 
TCOON,ioos:station:TCOON:524:1,2009-08-01T04:24:00Z,29.8672,-93.9310,0.0,0.1,154.0,0.7,'11111222,11111222,11111222' 
TCOON,ioos:station:TCOON:524:1,2009-08-01T04:30:00Z,29.8672,-93.9310,0.0,0.2,157.0,1.4,'11111222,11111222,11111222' 
TCOON,ioos:station:TCOON:524:1,2009-08-01T04:36:00Z,29.8672,-93.9310,0.0,0.1,168.0,0.9,'11111222,11111222,11111222' 
TCOON,ioos:station:TCOON:524:1,2009-08-01T04:42:00Z,29.8672,-93.9310,0.0,0.2,161.0,1.2,'11111222,11111222,11111222' 
TCOON,ioos:station:TCOON:524:1,2009-08-01T04:48:00Z,29.8672,-93.9310,0.0,0.1,168.0,1.1,'11111222,11111222,11111222' 
TCOON,ioos:station:TCOON:524:1,2009-08-01T04:54:00Z,29.8672,-93.9310,0.0,0.0,173.0,99.0,'11111222,11111222,11144222' 
TCOON,ioos:station:TCOON:524:1,2009-08-01T05:00:00Z,29.8672,-93.9310,0.0,0.0,163.0,0.7,'11111222,11111222,11111222' 
TCOON,ioos:station:TCOON:524:1,2009-08-01T05:06:00Z,29.8672,-93.9310,0.0,0.2,152.0,1.4,'11111222,11111222,11111222' 
TCOON,ioos:station:TCOON:524:1,2009-08-01T05:12:00Z,29.8672,-93.9310,0.0,0.4,155.0,1.3,'11111222,11111222,11111222' 
TCOON,ioos:station:TCOON:524:1,2009-08-01T05:18:00Z,29.8672,-93.9310,0.0,0.2,173.0,1.3,'11111222,11111222,11111222' 
TCOON,ioos:station:TCOON:524:1,2009-08-01T05:24:00Z,29.8672,-93.9310,0.0,0.0,166.0,0.4,'11111222,11111222,11111222' 
TCOON,ioos:station:TCOON:524:1,2009-08-01T05:30:00Z,29.8672,-93.9310,0.0,0.1,175.0,0.8,'11111222,11111222,11111222' 
TCOON,ioos:station:TCOON:524:1,2009-08-01T05:36:00Z,29.8672,-93.9310,0.0,0.1,168.0,0.8,'11111222,11111222,11111222' 
TCOON,ioos:station:TCOON:524:1,2009-08-01T05:42:00Z,29.8672,-93.9310,0.0,0.4,164.0,1.6,'11111222,11111222,11111222' 
TCOON,ioos:station:TCOON:524:1,2009-08-01T05:48:00Z,29.8672,-93.9310,0.0,0.1,164.0,0.8,'11111222,11111222,11111222' 
TCOON,ioos:station:TCOON:524:1,2009-08-01T05:54:00Z,29.8672,-93.9310,0.0,0.1,166.0,1.0,'11111222,11111222,11111222' 
TCOON,ioos:station:TCOON:524:1,2009-08-01T06:00:00Z,29.8672,-93.9310,0.0,0.3,166.0,1.6,'11111222,11111222,11111222' 
TCOON,ioos:station:TCOON:524:1,2009-08-01T06:06:00Z,29.8672,-93.9310,0.0,0.2,175.0,1.3,'11111222,11111222,11111222' 
TCOON,ioos:station:TCOON:524:1,2009-08-01T06:12:00Z,29.8672,-93.9310,0.0,0.7,172.0,2.2,'11111222,11111222,11111222' 
TCOON,ioos:station:TCOON:524:1,2009-08-01T06:18:00Z,29.8672,-93.9310,0.0,0.8,172.0,2.4,'11111222,11111222,11111222' 
TCOON,ioos:station:TCOON:524:1,2009-08-01T06:24:00Z,29.8672,-93.9310,0.0,0.5,170.0,1.6,'11111222,11111222,11111222' 
TCOON,ioos:station:TCOON:524:1,2009-08-01T06:30:00Z,29.8672,-93.9310,0.0,0.7,168.0,2.2,'11111222,11111222,11111222' 
TCOON,ioos:station:TCOON:524:1,2009-08-01T06:36:00Z,29.8672,-93.9310,0.0,0.7,180.0,1.8,'11111222,11111222,11111222' 
TCOON,ioos:station:TCOON:524:1,2009-08-01T06:42:00Z,29.8672,-93.9310,0.0,0.3,172.0,1.2,'11111222,11111222,11111222' 
TCOON,ioos:station:TCOON:524:1,2009-08-01T06:48:00Z,29.8672,-93.9310,0.0,0.7,172.0,1.7,'11111222,11111222,11111222' 
TCOON,ioos:station:TCOON:524:1,2009-08-01T06:54:00Z,29.8672,-93.9310,0.0,0.9,175.0,2.0,'11111222,11111222,11111222' 
TCOON,ioos:station:TCOON:524:1,2009-08-01T07:00:00Z,29.8672,-93.9310,0.0,0.7,172.0,2.4,'11111222,11111222,11111222' 
TCOON,ioos:station:TCOON:524:1,2009-08-01T07:06:00Z,29.8672,-93.9310,0.0,1.3,173.0,2.3,'11111222,11111222,11111222' 
TCOON,ioos:station:TCOON:524:1,2009-08-01T07:12:00Z,29.8672,-93.9310,0.0,0.9,174.0,2.9,'11111222,11111222,11111222' 
TCOON,ioos:station:TCOON:524:1,2009-08-01T07:18:00Z,29.8672,-93.9310,0.0,1.3,172.0,3.0,'11111222,11111222,11111222' 
TCOON,ioos:station:TCOON:524:1,2009-08-01T07:24:00Z,29.8672,-93.9310,0.0,1.6,178.0,3.1,'11111222,11111222,11111222' 
TCOON,ioos:station:TCOON:524:1,2009-08-01T07:30:00Z,29.8672,-93.9310,0.0,1.6,179.0,2.9,'11111222,11111222,11111222' 
TCOON,ioos:station:TCOON:524:1,2009-08-01T07:36:00Z,29.8672,-93.9310,0.0,1.4,177.0,2.4,'11111222,11111222,11111222' 
TCOON,ioos:station:TCOON:524:1,2009-08-01T07:42:00Z,29.8672,-93.9310,0.0,1.2,185.0,2.4,'11111222,11111222,11111222' 
TCOON,ioos:station:TCOON:524:1,2009-08-01T07:48:00Z,29.8672,-93.9310,0.0,1.4,173.0,2.1,'11111222,11111222,11111222' 
TCOON,ioos:station:TCOON:524:1,2009-08-01T07:54:00Z,29.8672,-93.9310,0.0,0.6,171.0,1.7,'11111222,11111222,11111222' 
TCOON,ioos:station:TCOON:524:1,2009-08-01T08:00:00Z,29.8672,-93.9310,0.0,0.6,178.0,1.7,'11111222,11111222,11111222' 
TCOON,ioos:station:TCOON:524:1,2009-08-01T08:06:00Z,29.8672,-93.9310,0.0,1.2,177.0,2.0,'11111222,11111222,11111222' 
TCOON,ioos:station:TCOON:524:1,2009-08-01T08:12:00Z,29.8672,-93.9310,0.0,1.7,181.0,2.8,'11111222,11111222,11111222' 
TCOON,ioos:station:TCOON:524:1,2009-08-01T08:18:00Z,29.8672,-93.9310,0.0,1.3,184.0,3.0,'11111222,11111222,11111222' 
TCOON,ioos:station:TCOON:524:1,2009-08-01T08:24:00Z,29.8672,-93.9310,0.0,1.5,177.0,2.5,'11111222,11111222,11111222' 
TCOON,ioos:station:TCOON:524:1,2009-08-01T08:30:00Z,29.8672,-93.9310,0.0,1.4,181.0,2.8,'11111222,11111222,11111222' 
TCOON,ioos:station:TCOON:524:1,2009-08-01T08:36:00Z,29.8672,-93.9310,0.0,1.4,188.0,3.0,'11111222,11111222,11111222' 
TCOON,ioos:station:TCOON:524:1,2009-08-01T08:42:00Z,29.8672,-93.9310,0.0,1.8,192.0,2.4,'11111222,11111222,11111222' 
TCOON,ioos:station:TCOON:524:1,2009-08-01T08:48:00Z,29.8672,-93.9310,0.0,1.2,186.0,2.3,'11111222,11111222,11111222' 
TCOON,ioos:station:TCOON:524:1,2009-08-01T08:54:00Z,29.8672,-93.9310,0.0,0.8,182.0,2.0,'11111222,11111222,11111222' 
TCOON,ioos:station:TCOON:524:1,2009-08-01T09:00:00Z,29.8672,-93.9310,0.0,1.7,176.0,2.6,'11111222,11111222,11111222' 
TCOON,ioos:station:TCOON:524:1,2009-08-01T09:06:00Z,29.8672,-93.9310,0.0,1.8,179.0,2.8,'11111222,11111222,11111222' 
TCOON,ioos:station:TCOON:524:1,2009-08-01T09:12:00Z,29.8672,-93.9310,0.0,1.2,180.0,2.5,'11111222,11111222,11111222' 
TCOON,ioos:station:TCOON:524:1,2009-08-01T09:18:00Z,29.8672,-93.9310,0.0,0.5,186.0,1.7,'11111222,11111222,11111222' 
TCOON,ioos:station:TCOON:524:1,2009-08-01T09:24:00Z,29.8672,-93.9310,0.0,1.1,191.0,2.1,'11111222,11111222,11111222' 
TCOON,ioos:station:TCOON:524:1,2009-08-01T09:30:00Z,29.8672,-93.9310,0.0,0.9,182.0,1.9,'11111222,11111222,11111222' 
TCOON,ioos:station:TCOON:524:1,2009-08-01T09:36:00Z,29.8672,-93.9310,0.0,0.8,177.0,1.9,'11111222,11111222,11111222' 
TCOON,ioos:station:TCOON:524:1,2009-08-01T09:42:00Z,29.8672,-93.9310,0.0,0.3,189.0,1.5,'11111222,11111222,11111222' 
TCOON,ioos:station:TCOON:524:1,2009-08-01T09:48:00Z,29.8672,-93.9310,0.0,1.0,180.0,1.6,'11111222,11111222,11111222' 
TCOON,ioos:station:TCOON:524:1,2009-08-01T09:54:00Z,29.8672,-93.9310,0.0,0.8,175.0,1.8,'11111222,11111222,11111222' 
TCOON,ioos:station:TCOON:524:1,2009-08-01T10:00:00Z,29.8672,-93.9310,0.0,0.5,178.0,1.3,'11111222,11111222,11111222' 
TCOON,ioos:station:TCOON:524:1,2009-08-01T10:06:00Z,29.8672,-93.9310,0.0,0.2,172.0,1.1,'11111222,11111222,11111222' 
TCOON,ioos:station:TCOON:524:1,2009-08-01T10:12:00Z,29.8672,-93.9310,0.0,0.1,184.0,1.1,'11111222,11111222,11111222' 
TCOON,ioos:station:TCOON:524:1,2009-08-01T10:18:00Z,29.8672,-93.9310,0.0,0.4,180.0,1.5,'11111222,11111222,11111222' 
TCOON,ioos:station:TCOON:524:1,2009-08-01T10:24:00Z,29.8672,-93.9310,0.0,0.1,164.0,1.0,'11111222,11111222,11111222' 
TCOON,ioos:station:TCOON:524:1,2009-08-01T10:30:00Z,29.8672,-93.9310,0.0,0.2,167.0,1.1,'11111222,11111222,11111222' 
TCOON,ioos:station:TCOON:524:1,2009-08-01T10:36:00Z,29.8672,-93.9310,0.0,0.5,168.0,1.3,'11111222,11111222,11111222' 
TCOON,ioos:station:TCOON:524:1,2009-08-01T10:42:00Z,29.8672,-93.9310,0.0,0.0,178.0,0.6,'11111222,11111222,11111222' 
TCOON,ioos:station:TCOON:524:1,2009-08-01T10:48:00Z,29.8672,-93.9310,0.0,0.1,163.0,0.7,'11111222,11111222,11111222' 
TCOON,ioos:station:TCOON:524:1,2009-08-01T10:54:00Z,29.8672,-93.9310,0.0,0.1,170.0,1.2,'11111222,11111222,11111222' 
TCOON,ioos:station:TCOON:524:1,2009-08-01T11:00:00Z,29.8672,-93.9310,0.0,0.1,170.0,0.9,'11111222,11111222,11111222' 
TCOON,ioos:station:TCOON:524:1,2009-08-01T11:06:00Z,29.8672,-93.9310,0.0,0.0,172.0,0.2,'11111222,11111222,11111222' 
TCOON,ioos:station:TCOON:524:1,2009-08-01T11:12:00Z,29.8672,-93.9310,0.0,0.5,169.0,1.3,'11111222,11111222,11111222' 
TCOON,ioos:station:TCOON:524:1,2009-08-01T11:18:00Z,29.8672,-93.9310,0.0,0.8,170.0,2.0,'11111222,11111222,11111222' 
TCOON,ioos:station:TCOON:524:1,2009-08-01T11:24:00Z,29.8672,-93.9310,0.0,0.6,172.0,1.9,'11111222,11111222,11111222' 
TCOON,ioos:station:TCOON:524:1,2009-08-01T11:30:00Z,29.8672,-93.9310,0.0,0.8,173.0,2.1,'11111222,11111222,11111222' 
TCOON,ioos:station:TCOON:524:1,2009-08-01T11:36:00Z,29.8672,-93.9310,0.0,1.0,177.0,2.3,'11111222,11111222,11111222' 
TCOON,ioos:station:TCOON:524:1,2009-08-01T11:42:00Z,29.8672,-93.9310,0.0,1.4,175.0,2.4,'11111222,11111222,11111222' 
TCOON,ioos:station:TCOON:524:1,2009-08-01T11:48:00Z,29.8672,-93.9310,0.0,0.8,171.0,2.1,'11111222,11111222,11111222' 
TCOON,ioos:station:TCOON:524:1,2009-08-01T11:54:00Z,29.8672,-93.9310,0.0,0.2,168.0,1.3,'11111222,11111222,11111222' 
TCOON,ioos:station:TCOON:524:1,2009-08-01T12:00:00Z,29.8672,-93.9310,0.0,0.7,169.0,1.5,'11111222,11111222,11111222' 
TCOON,ioos:station:TCOON:524:1,2009-08-01T12:06:00Z,29.8672,-93.9310,0.0,0.5,178.0,1.5,'11111222,11111222,11111222' 
TCOON,ioos:station:TCOON:524:1,2009-08-01T12:12:00Z,29.8672,-93.9310,0.0,0.2,200.0,1.2,'11111222,11111222,11111222' 
TCOON,ioos:station:TCOON:524:1,2009-08-01T12:18:00Z,29.8672,-93.9310,0.0,0.7,182.0,2.2,'11111222,11111222,11111222' 
TCOON,ioos:station:TCOON:524:1,2009-08-01T12:24:00Z,29.8672,-93.9310,0.0,0.8,175.0,1.5,'11111222,11111222,11111222' 
TCOON,ioos:station:TCOON:524:1,2009-08-01T12:30:00Z,29.8672,-93.9310,0.0,1.0,178.0,1.8,'11111222,11111222,11111222' 
TCOON,ioos:station:TCOON:524:1,2009-08-01T12:36:00Z,29.8672,-93.9310,0.0,0.5,184.0,1.7,'11111222,11111222,11111222' 
TCOON,ioos:station:TCOON:524:1,2009-08-01T12:42:00Z,29.8672,-93.9310,0.0,0.6,185.0,1.7,'11111222,11111222,11111222' 
TCOON,ioos:station:TCOON:524:1,2009-08-01T12:48:00Z,29.8672,-93.9310,0.0,1.2,190.0,2.1,'11111222,11111222,11111222' 
TCOON,ioos:station:TCOON:524:1,2009-08-01T12:54:00Z,29.8672,-93.9310,0.0,1.1,192.0,2.6,'11111222,11111222,11111222' 
TCOON,ioos:station:TCOON:524:1,2009-08-01T13:00:00Z,29.8672,-93.9310,0.0,2.7,193.0,3.6,'11111222,11111222,11111222' 
TCOON,ioos:station:TCOON:524:1,2009-08-01T13:06:00Z,29.8672,-93.9310,0.0,1.6,191.0,2.7,'11111222,11111222,11111222' 
TCOON,ioos:station:TCOON:524:1,2009-08-01T13:12:00Z,29.8672,-93.9310,0.0,2.1,199.0,3.2,'11111222,11111222,11111222' 
TCOON,ioos:station:TCOON:524:1,2009-08-01T13:18:00Z,29.8672,-93.9310,0.0,2.9,192.0,4.3,'11111222,11111222,11111222' 
TCOON,ioos:station:TCOON:524:1,2009-08-01T13:24:00Z,29.8672,-93.9310,0.0,3.0,197.0,4.2,'11111222,11111222,11111222' 
TCOON,ioos:station:TCOON:524:1,2009-08-01T13:30:00Z,29.8672,-93.9310,0.0,3.9,195.0,5.4,'11111222,11111222,11111222' 
TCOON,ioos:station:TCOON:524:1,2009-08-01T13:36:00Z,29.8672,-93.9310,0.0,4.2,198.0,5.7,'11111222,11111222,11111222' 
TCOON,ioos:station:TCOON:524:1,2009-08-01T13:42:00Z,29.8672,-93.9310,0.0,3.2,197.0,4.4,'11111222,11111222,11111222' 
TCOON,ioos:station:TCOON:524:1,2009-08-01T13:48:00Z,29.8672,-93.9310,0.0,3.6,205.0,5.8,'11111222,11111222,11111222' 
TCOON,ioos:station:TCOON:524:1,2009-08-01T13:54:00Z,29.8672,-93.9310,0.0,4.6,207.0,7.2,'11111222,11111222,11111222' 
TCOON,ioos:station:TCOON:524:1,2009-08-01T14:00:00Z,29.8672,-93.9310,0.0,6.2,204.0,99.0,'11111222,11111222,11144222' 
TCOON,ioos:station:TCOON:524:1,2009-08-01T14:06:00Z,29.8672,-93.9310,0.0,4.8,195.0,6.3,'11111222,11111222,11111222' 
TCOON,ioos:station:TCOON:524:1,2009-08-01T14:12:00Z,29.8672,-93.9310,0.0,5.4,205.0,7.1,'11111222,11111222,11111222' 
TCOON,ioos:station:TCOON:524:1,2009-08-01T14:18:00Z,29.8672,-93.9310,0.0,5.9,203.0,7.3,'11111222,11111222,11111222' 
TCOON,ioos:station:TCOON:524:1,2009-08-01T14:24:00Z,29.8672,-93.9310,0.0,4.5,186.0,5.8,'11111222,11111222,11111222' 
TCOON,ioos:station:TCOON:524:1,2009-08-01T14:30:00Z,29.8672,-93.9310,0.0,4.2,203.0,5.7,'11111222,11111222,11111222' 
TCOON,ioos:station:TCOON:524:1,2009-08-01T14:36:00Z,29.8672,-93.9310,0.0,4.7,198.0,6.1,'11111222,11111222,11111222' 
TCOON,ioos:station:TCOON:524:1,2009-08-01T14:42:00Z,29.8672,-93.9310,0.0,4.1,196.0,5.3,'11111222,11111222,11111222' 
TCOON,ioos:station:TCOON:524:1,2009-08-01T14:48:00Z,29.8672,-93.9310,0.0,4.9,203.0,6.3,'11111222,11111222,11111222' 
TCOON,ioos:station:TCOON:524:1,2009-08-01T14:54:00Z,29.8672,-93.9310,0.0,4.8,200.0,5.6,'11111222,11111222,11111222' 
TCOON,ioos:station:TCOON:524:1,2009-08-01T15:00:00Z,29.8672,-93.9310,0.0,4.7,199.0,6.1,'11111222,11111222,11111222' 
TCOON,ioos:station:TCOON:524:1,2009-08-01T15:06:00Z,29.8672,-93.9310,0.0,4.9,199.0,6.3,'11111222,11111222,11111222' 
TCOON,ioos:station:TCOON:524:1,2009-08-01T15:12:00Z,29.8672,-93.9310,0.0,4.2,209.0,5.3,'11111222,11111222,11111222' 
TCOON,ioos:station:TCOON:524:1,2009-08-01T15:18:00Z,29.8672,-93.9310,0.0,5.4,209.0,6.8,'11111222,11111222,11111222' 
TCOON,ioos:station:TCOON:524:1,2009-08-01T15:24:00Z,29.8672,-93.9310,0.0,4.2,196.0,5.7,'11111222,11111222,11111222' 
TCOON,ioos:station:TCOON:524:1,2009-08-01T15:30:00Z,29.8672,-93.9310,0.0,5.0,197.0,6.8,'11111222,11111222,11111222' 
TCOON,ioos:station:TCOON:524:1,2009-08-01T15:36:00Z,29.8672,-93.9310,0.0,5.2,202.0,6.7,'11111222,11111222,11111222' 
TCOON,ioos:station:TCOON:524:1,2009-08-01T15:42:00Z,29.8672,-93.9310,0.0,5.3,198.0,7.0,'11111222,11111222,11111222' 
TCOON,ioos:station:TCOON:524:1,2009-08-01T15:48:00Z,29.8672,-93.9310,0.0,5.3,202.0,6.6,'11111222,11111222,11111222' 
TCOON,ioos:station:TCOON:524:1,2009-08-01T15:54:00Z,29.8672,-93.9310,0.0,5.0,205.0,6.3,'11111222,11111222,11111222' 
TCOON,ioos:station:TCOON:524:1,2009-08-01T16:00:00Z,29.8672,-93.9310,0.0,5.1,196.0,6.6,'11111222,11111222,11111222' 
TCOON,ioos:station:TCOON:524:1,2009-08-01T16:06:00Z,29.8672,-93.9310,0.0,4.7,198.0,6.5,'11111222,11111222,11111222' 
TCOON,ioos:station:TCOON:524:1,2009-08-01T16:12:00Z,29.8672,-93.9310,0.0,5.8,194.0,7.8,'11111222,11111222,11111222' 
TCOON,ioos:station:TCOON:524:1,2009-08-01T16:18:00Z,29.8672,-93.9310,0.0,4.8,199.0,7.3,'11111222,11111222,11111222' 
TCOON,ioos:station:TCOON:524:1,2009-08-01T16:24:00Z,29.8672,-93.9310,0.0,5.4,201.0,7.1,'11111222,11111222,11111222' 
TCOON,ioos:station:TCOON:524:1,2009-08-01T16:30:00Z,29.8672,-93.9310,0.0,5.5,191.0,7.7,'11111222,11111222,11111222' 
TCOON,ioos:station:TCOON:524:1,2009-08-01T16:36:00Z,29.8672,-93.9310,0.0,4.5,202.0,6.9,'11111222,11111222,11111222' 
TCOON,ioos:station:TCOON:524:1,2009-08-01T16:42:00Z,29.8672,-93.9310,0.0,5.7,198.0,7.8,'11111222,11111222,11111222' 
TCOON,ioos:station:TCOON:524:1,2009-08-01T16:48:00Z,29.8672,-93.9310,0.0,4.8,191.0,6.2,'11111222,11111222,11111222' 
TCOON,ioos:station:TCOON:524:1,2009-08-01T16:54:00Z,29.8672,-93.9310,0.0,5.2,198.0,6.9,'11111222,11111222,11111222' 
TCOON,ioos:station:TCOON:524:1,2009-08-01T17:00:00Z,29.8672,-93.9310,0.0,5.2,195.0,6.9,'11111222,11111222,11111222' 
TCOON,ioos:station:TCOON:524:1,2009-08-01T17:06:00Z,29.8672,-93.9310,0.0,5.3,199.0,6.7,'11111222,11111222,11111222' 
TCOON,ioos:station:TCOON:524:1,2009-08-01T17:12:00Z,29.8672,-93.9310,0.0,6.1,209.0,7.4,'11111222,11111222,11111222' 
TCOON,ioos:station:TCOON:524:1,2009-08-01T17:18:00Z,29.8672,-93.9310,0.0,4.8,208.0,6.4,'11111222,11111222,11111222' 
TCOON,ioos:station:TCOON:524:1,2009-08-01T17:24:00Z,29.8672,-93.9310,0.0,5.5,211.0,6.4,'11111222,11111222,11111222' 
TCOON,ioos:station:TCOON:524:1,2009-08-01T17:30:00Z,29.8672,-93.9310,0.0,4.8,196.0,6.2,'11111222,11111222,11111222' 
TCOON,ioos:station:TCOON:524:1,2009-08-01T17:36:00Z,29.8672,-93.9310,0.0,5.3,212.0,6.3,'11111222,11111222,11111222' 
TCOON,ioos:station:TCOON:524:1,2009-08-01T17:42:00Z,29.8672,-93.9310,0.0,4.7,192.0,6.2,'11111222,11111222,11111222' 
TCOON,ioos:station:TCOON:524:1,2009-08-01T17:48:00Z,29.8672,-93.9310,0.0,4.5,194.0,6.3,'11111222,11111222,11111222' 
TCOON,ioos:station:TCOON:524:1,2009-08-01T17:54:00Z,29.8672,-93.9310,0.0,6.2,209.0,8.0,'11111222,11111222,11111222' 
TCOON,ioos:station:TCOON:524:1,2009-08-01T18:00:00Z,29.8672,-93.9310,0.0,6.0,206.0,7.5,'11111222,11111222,11111222' 
TCOON,ioos:station:TCOON:524:1,2009-08-01T18:06:00Z,29.8672,-93.9310,0.0,4.9,191.0,6.3,'11111222,11111222,11111222' 
TCOON,ioos:station:TCOON:524:1,2009-08-01T18:12:00Z,29.8672,-93.9310,0.0,4.5,207.0,5.7,'11111222,11111222,11111222' 
TCOON,ioos:station:TCOON:524:1,2009-08-01T18:18:00Z,29.8672,-93.9310,0.0,4.2,193.0,5.3,'11111222,11111222,11111222' 
TCOON,ioos:station:TCOON:524:1,2009-08-01T18:24:00Z,29.8672,-93.9310,0.0,4.5,203.0,6.5,'11111222,11111222,11111222' 
TCOON,ioos:station:TCOON:524:1,2009-08-01T18:30:00Z,29.8672,-93.9310,0.0,3.8,189.0,5.5,'11111222,11111222,11111222' 
TCOON,ioos:station:TCOON:524:1,2009-08-01T18:36:00Z,29.8672,-93.9310,0.0,6.3,205.0,7.8,'11111222,11111222,11111222' 
TCOON,ioos:station:TCOON:524:1,2009-08-01T18:42:00Z,29.8672,-93.9310,0.0,6.1,211.0,8.4,'11111222,11111222,11111222' 
TCOON,ioos:station:TCOON:524:1,2009-08-01T18:48:00Z,29.8672,-93.9310,0.0,5.1,188.0,6.5,'11111222,11111222,11111222' 
TCOON,ioos:station:TCOON:524:1,2009-08-01T18:54:00Z,29.8672,-93.9310,0.0,6.1,211.0,7.8,'11111222,11111222,11111222' 
TCOON,ioos:station:TCOON:524:1,2009-08-01T19:00:00Z,29.8672,-93.9310,0.0,4.5,197.0,5.6,'11111222,11111222,11111222' 
TCOON,ioos:station:TCOON:524:1,2009-08-01T19:06:00Z,29.8672,-93.9310,0.0,4.9,188.0,6.6,'11111222,11111222,11111222' 
TCOON,ioos:station:TCOON:524:1,2009-08-01T19:12:00Z,29.8672,-93.9310,0.0,5.6,201.0,7.1,'11111222,11111222,11111222' 
TCOON,ioos:station:TCOON:524:1,2009-08-01T19:18:00Z,29.8672,-93.9310,0.0,4.7,183.0,6.4,'11111222,11111222,11111222' 
TCOON,ioos:station:TCOON:524:1,2009-08-01T19:24:00Z,29.8672,-93.9310,0.0,4.9,189.0,6.7,'11111222,11111222,11111222' 
TCOON,ioos:station:TCOON:524:1,2009-08-01T19:30:00Z,29.8672,-93.9310,0.0,4.8,195.0,6.6,'11111222,11111222,11111222' 
TCOON,ioos:station:TCOON:524:1,2009-08-01T19:36:00Z,29.8672,-93.9310,0.0,5.6,200.0,7.3,'11111222,11111222,11111222' 
TCOON,ioos:station:TCOON:524:1,2009-08-01T19:42:00Z,29.8672,-93.9310,0.0,4.5,193.0,6.2,'11111222,11111222,11111222' 
TCOON,ioos:station:TCOON:524:1,2009-08-01T19:48:00Z,29.8672,-93.9310,0.0,5.2,201.0,6.7,'11111222,11111222,11111222' 
TCOON,ioos:station:TCOON:524:1,2009-08-01T19:54:00Z,29.8672,-93.9310,0.0,5.5,187.0,7.7,'11111222,11111222,11111222' 
TCOON,ioos:station:TCOON:524:1,2009-08-01T20:00:00Z,29.8672,-93.9310,0.0,4.9,199.0,6.2,'11111222,11111222,11111222' 
TCOON,ioos:station:TCOON:524:1,2009-08-01T20:06:00Z,29.8672,-93.9310,0.0,5.5,194.0,7.0,'11111222,11111222,11111222' 
TCOON,ioos:station:TCOON:524:1,2009-08-01T20:12:00Z,29.8672,-93.9310,0.0,5.5,194.0,7.3,'11111222,11111222,11111222' 
TCOON,ioos:station:TCOON:524:1,2009-08-01T20:18:00Z,29.8672,-93.9310,0.0,6.1,205.0,8.1,'11111222,11111222,11111222' 
TCOON,ioos:station:TCOON:524:1,2009-08-01T20:24:00Z,29.8672,-93.9310,0.0,4.7,187.0,6.7,'11111222,11111222,11111222' 
TCOON,ioos:station:TCOON:524:1,2009-08-01T20:30:00Z,29.8672,-93.9310,0.0,4.1,183.0,5.2,'11111222,11111222,11111222' 
TCOON,ioos:station:TCOON:524:1,2009-08-01T20:36:00Z,29.8672,-93.9310,0.0,4.9,203.0,7.0,'11111222,11111222,11111222' 
TCOON,ioos:station:TCOON:524:1,2009-08-01T20:42:00Z,29.8672,-93.9310,0.0,5.4,185.0,7.1,'11111222,11111222,11111222' 
TCOON,ioos:station:TCOON:524:1,2009-08-01T20:48:00Z,29.8672,-93.9310,0.0,4.6,207.0,5.6,'11111222,11111222,11111222' 
TCOON,ioos:station:TCOON:524:1,2009-08-01T20:54:00Z,29.8672,-93.9310,0.0,4.8,193.0,7.4,'11111222,11111222,11111222' 
TCOON,ioos:station:TCOON:524:1,2009-08-01T21:00:00Z,29.8672,-93.9310,0.0,4.7,188.0,6.4,'11111222,11111222,11111222' 
TCOON,ioos:station:TCOON:524:1,2009-08-01T21:06:00Z,29.8672,-93.9310,0.0,5.6,187.0,7.1,'11111222,11111222,11111222' 
TCOON,ioos:station:TCOON:524:1,2009-08-01T21:12:00Z,29.8672,-93.9310,0.0,5.1,187.0,7.0,'11111222,11111222,11111222' 
TCOON,ioos:station:TCOON:524:1,2009-08-01T21:18:00Z,29.8672,-93.9310,0.0,6.0,181.0,7.8,'11111222,11111222,11111222' 